This is the latest recevied weather packets stored in our database for station/object KM4RT-13. If no packets are shown the sender has not sent any weather packets the latest 1 day(s).
| Time | Temp. | Humidity | Pressure | Rain* | Wind** | Luminosity | Snow |
|---|---|---|---|---|---|---|---|
| 1778074230 | 10.56° C | 99% | 1010.9 hPa | 0 mm | - | 34 W/m² | - |
| 1778073018 | 10.56° C | 99% | 1010.5 hPa | 0 mm | - | 65 W/m² | - |
| 1778070901 | 10.56° C | 99% | 1009.5 hPa | 0 mm | - | 64 W/m² | - |
| 1778070295 | 10.56° C | 99% | 1009.4 hPa | 0 mm | - | 51 W/m² | - |
| 1778069387 | 10.56° C | 99% | 1009.1 hPa | 0 mm | - | 34 W/m² | - |
| 1778068178 | 10.56° C | 99% | 1009 hPa | 0 mm | - | 15 W/m² | - |
| 1778067271 | 10.56° C | 99% | 1009.1 hPa | 0 mm | - | 7 W/m² | - |
| 1778066967 | 10.56° C | 99% | 1008.8 hPa | 0 mm | - | 10 W/m² | - |
| 1778066665 | 10.56° C | 99% | 1007.9 hPa | 0 mm | - | 6 W/m² | - |
| 1778066362 | 10.56° C | 99% | 1007.9 hPa | 0 mm | - | 4 W/m² | - |
| 1778066060 | 10.56° C | 99% | 1007.8 hPa | 4.32 mm | - | 3 W/m² | - |
| 1778065151 | 10.56° C | 99% | 1009 hPa | 3.56 mm | - | 0 W/m² | - |
| 1778062729 | 10.56° C | 99% | 1008.5 hPa | 7.87 mm | - | 0 W/m² | - |
| 1778062425 | 10.56° C | 99% | 1008.1 hPa | 7.87 mm | - | 0 W/m² | - |
| 1778060913 | 10.56° C | 99% | 1008.5 hPa | 6.1 mm | - | 0 W/m² | - |
| 1778060612 | 10.56° C | 99% | 1007.7 hPa | 4.83 mm | - | 0 W/m² | - |
| 1778059402 | 11.11° C | 99% | 1007.4 hPa | 3.05 mm | - | 0 W/m² | - |
| 1778058796 | 11.11° C | 99% | 1007.3 hPa | 0 mm | - | 0 W/m² | - |
| 1778058494 | 11.11° C | 99% | 1007.7 hPa | 0 mm | - | 0 W/m² | - |
| 1778058191 | 11.11° C | 99% | 1007.3 hPa | 0 mm | - | 0 W/m² | - |
| 1778056977 | 11.11° C | 99% | 1006.6 hPa | 3.05 mm | - | 0 W/m² | - |
| 1778056674 | 11.11° C | 99% | 1006.8 hPa | 3.05 mm | - | 0 W/m² | - |
| 1778055764 | 11.11° C | 99% | 1007.3 hPa | 10.67 mm | - | 0 W/m² | - |
| 1778055462 | 11.11° C | 99% | 1006.9 hPa | 4.83 mm | - | 0 W/m² | - |
| 1778055159 | 11.11° C | 99% | 1006.9 hPa | 1.78 mm | - | 0 W/m² | - |
* Rain latest hour (hover to see other rain measurements)
** Current wind speed in m/s (hover to see current wind gust speed)